Time,TemperatureF,DewpointF,PressureIn,WindDirection,WindDirectionDegrees,WindSpeedMPH,WindSpeedGustMPH,Humidity,HourlyPrecipIn,Conditions,Clouds,dailyrainin,SoftwareType,DateUTC
2013-12-02 00:01:00,32.1,29.0,30.63,East,90,0.0,0.0,91,0.00,,,0.00,Rainwise IP-100,2013-12-02 05:01:00,
2013-12-02 00:02:00,32.1,29.0,30.63,East,90,0.0,0.0,91,0.00,,,0.00,Rainwise IP-100,2013-12-02 05:02:00,
2013-12-02 00:07:00,31.6,29.0,30.63,East,90,0.0,0.0,91,0.00,,,0.00,Rainwise IP-100,2013-12-02 05:07:00,
2013-12-02 00:12:00,31.3,28.0,30.63,East,90,0.0,0.0,91,0.00,,,0.00,Rainwise IP-100,2013-12-02 05:12:00,
2013-12-02 00:17:00,31.1,29.0,30.63,East,90,0.0,0.0,92,0.00,,,0.00,Rainwise IP-100,2013-12-02 05:17:00,
2013-12-02 00:22:00,31.1,29.0,30.63,East,90,0.0,0.0,92,0.00,,,0.00,Rainwise IP-100,2013-12-02 05:22:00,
2013-12-02 00:27:00,31.3,29.0,30.63,East,90,0.0,0.0,93,0.00,,,0.00,Rainwise IP-100,2013-12-02 05:27:00,
2013-12-02 00:32:00,31.4,29.0,30.63,East,90,0.0,0.0,93,0.00,,,0.00,Rainwise IP-100,2013-12-02 05:32:00,
2013-12-02 00:37:00,31.1,29.0,30.63,East,90,0.0,0.0,93,0.00,,,0.00,Rainwise IP-100,2013-12-02 05:37:00,
2013-12-02 00:42:00,30.7,29.0,30.63,East,90,0.0,0.0,93,0.00,,,0.00,Rainwise IP-100,2013-12-02 05:42:00,
2013-12-02 00:47:00,30.4,29.0,30.63,East,90,0.0,0.0,93,0.00,,,0.00,Rainwise IP-100,2013-12-02 05:47:00,
2013-12-02 00:52:00,30.1,29.0,30.63,East,90,0.0,0.0,93,0.00,,,0.00,Rainwise IP-100,2013-12-02 05:52:00,
2013-12-02 00:57:00,29.9,29.0,30.63,East,90,0.0,0.0,93,0.00,,,0.00,Rainwise IP-100,2013-12-02 05:57:00,
2013-12-02 01:02:00,29.9,29.0,30.63,East,90,0.0,0.0,94,0.00,,,0.00,Rainwise IP-100,2013-12-02 06:02:00,
2013-12-02 01:07:00,29.9,29.0,30.63,East,90,0.0,0.0,94,0.00,,,0.00,Rainwise IP-100,2013-12-02 06:07:00,
2013-12-02 01:12:00,30.2,29.0,30.63,East,90,0.0,0.0,94,0.00,,,0.00,Rainwise IP-100,2013-12-02 06:12:00,
2013-12-02 01:17:00,30.5,29.0,30.63,East,90,0.0,0.0,95,0.00,,,0.00,Rainwise IP-100,2013-12-02 06:17:00,
2013-12-02 01:22:00,30.2,29.0,30.63,East,90,0.0,0.0,94,0.00,,,0.00,Rainwise IP-100,2013-12-02 06:22:00,
2013-12-02 01:27:00,30.1,29.0,30.63,East,90,0.0,0.0,94,0.00,,,0.00,Rainwise IP-100,2013-12-02 06:27:00,
2013-12-02 01:32:00,30.1,29.0,30.63,East,90,0.0,0.0,94,0.00,,,0.00,Rainwise IP-100,2013-12-02 06:32:00,
2013-12-02 01:37:00,30.2,29.0,30.63,East,90,0.0,0.0,95,0.00,,,0.00,Rainwise IP-100,2013-12-02 06:37:00,
2013-12-02 01:42:00,30.2,29.0,30.63,East,90,0.0,0.0,94,0.00,,,0.00,Rainwise IP-100,2013-12-02 06:42:00,
2013-12-02 01:47:00,29.9,29.0,30.63,East,90,0.0,0.0,94,0.00,,,0.00,Rainwise IP-100,2013-12-02 06:47:00,
2013-12-02 01:52:00,29.6,29.0,30.63,East,90,0.0,0.0,94,0.00,,,0.00,Rainwise IP-100,2013-12-02 06:52:00,
2013-12-02 01:57:00,29.6,29.0,30.63,East,90,0.0,0.0,94,0.00,,,0.00,Rainwise IP-100,2013-12-02 06:57:00,
2013-12-02 02:02:00,29.8,29.0,30.63,East,90,0.0,0.0,95,0.00,,,0.00,Rainwise IP-100,2013-12-02 07:02:00,
2013-12-02 02:07:00,29.7,29.0,30.63,East,90,0.0,0.0,95,0.00,,,0.00,Rainwise IP-100,2013-12-02 07:07:00,
2013-12-02 02:12:00,29.4,28.0,30.63,East,90,0.0,0.0,95,0.00,,,0.00,Rainwise IP-100,2013-12-02 07:12:00,
2013-12-02 02:17:00,29.1,28.0,30.63,East,90,0.0,0.0,95,0.00,,,0.00,Rainwise IP-100,2013-12-02 07:17:00,
2013-12-02 02:22:00,28.9,28.0,30.63,East,90,0.0,0.0,95,0.00,,,0.00,Rainwise IP-100,2013-12-02 07:22:00,
2013-12-02 02:27:00,28.9,28.0,30.63,East,90,0.0,0.0,96,0.00,,,0.00,Rainwise IP-100,2013-12-02 07:27:00,
2013-12-02 02:32:00,29.1,28.0,30.63,East,90,0.0,0.0,96,0.00,,,0.00,Rainwise IP-100,2013-12-02 07:32:00,
2013-12-02 02:37:00,29.2,29.0,30.63,East,90,0.0,0.0,97,0.00,,,0.00,Rainwise IP-100,2013-12-02 07:37:00,
2013-12-02 02:42:00,29.3,29.0,30.63,East,90,0.0,0.0,97,0.00,,,0.00,Rainwise IP-100,2013-12-02 07:42:00,
2013-12-02 02:47:00,29.1,29.0,30.63,East,90,0.0,0.0,97,0.00,,,0.00,Rainwise IP-100,2013-12-02 07:47:00,
2013-12-02 02:52:00,28.6,29.0,30.63,East,90,0.0,0.0,97,0.00,,,0.00,Rainwise IP-100,2013-12-02 07:52:00,
2013-12-02 02:57:00,28.4,28.0,30.63,East,90,0.0,0.0,97,0.00,,,0.00,Rainwise IP-100,2013-12-02 07:57:00,
2013-12-02 03:02:00,28.3,28.0,30.63,East,90,0.0,0.0,97,0.00,,,0.00,Rainwise IP-100,2013-12-02 08:02:00,
2013-12-02 03:07:00,28.5,29.0,30.63,East,90,0.0,0.0,97,0.00,,,0.00,Rainwise IP-100,2013-12-02 08:07:00,
2013-12-02 03:12:00,28.6,29.0,30.63,East,90,0.0,0.0,97,0.00,,,0.00,Rainwise IP-100,2013-12-02 08:12:00,
2013-12-02 03:17:00,28.6,29.0,30.63,East,90,0.0,0.0,97,0.00,,,0.00,Rainwise IP-100,2013-12-02 08:17:00,
2013-12-02 03:22:00,28.9,29.0,30.63,East,90,0.0,0.0,97,0.00,,,0.00,Rainwise IP-100,2013-12-02 08:22:00,
2013-12-02 03:27:00,29.4,29.0,30.63,East,90,0.0,0.0,98,0.00,,,0.00,Rainwise IP-100,2013-12-02 08:27:00,
2013-12-02 03:32:00,29.4,29.0,30.63,East,90,0.0,0.0,98,0.00,,,0.00,Rainwise IP-100,2013-12-02 08:32:00,
2013-12-02 03:37:00,29.3,29.0,30.63,East,90,0.0,0.0,98,0.00,,,0.00,Rainwise IP-100,2013-12-02 08:37:00,
2013-12-02 03:42:00,29.3,29.0,30.63,East,90,0.0,0.0,98,0.00,,,0.00,Rainwise IP-100,2013-12-02 08:42:00,
2013-12-02 03:47:00,29.2,29.0,30.63,East,90,0.0,0.0,97,0.00,,,0.00,Rainwise IP-100,2013-12-02 08:47:00,
2013-12-02 03:52:00,29.2,29.0,30.63,East,90,0.0,0.0,97,0.00,,,0.00,Rainwise IP-100,2013-12-02 08:52:00,
2013-12-02 03:57:00,29.1,29.0,30.63,East,90,0.0,0.0,97,0.00,,,0.00,Rainwise IP-100,2013-12-02 08:57:00,
2013-12-02 04:02:00,29.1,29.0,30.63,East,90,0.0,0.0,98,0.00,,,0.00,Rainwise IP-100,2013-12-02 09:02:00,
2013-12-02 04:07:00,29.3,29.0,30.63,East,90,0.0,0.0,98,0.00,,,0.00,Rainwise IP-100,2013-12-02 09:07:00,
2013-12-02 04:12:00,29.5,31.0,30.63,East,90,0.0,0.0,98,0.00,,,0.00,Rainwise IP-100,2013-12-02 09:12:00,
2013-12-02 04:17:00,29.5,31.0,30.63,East,90,0.0,0.0,98,0.00,,,0.00,Rainwise IP-100,2013-12-02 09:17:00,
2013-12-02 04:22:00,29.3,29.0,30.63,East,90,0.0,0.0,97,0.00,,,0.00,Rainwise IP-100,2013-12-02 09:22:00,
2013-12-02 04:27:00,29.1,29.0,30.63,East,90,0.0,0.0,97,0.00,,,0.00,Rainwise IP-100,2013-12-02 09:27:00,
2013-12-02 04:32:00,28.9,29.0,30.63,East,90,0.0,0.0,97,0.00,,,0.00,Rainwise IP-100,2013-12-02 09:32:00,
2013-12-02 04:37:00,29.1,29.0,30.63,East,90,0.0,0.0,97,0.00,,,0.00,Rainwise IP-100,2013-12-02 09:37:00,
2013-12-02 04:42:00,29.5,29.0,30.63,East,90,0.0,0.0,97,0.00,,,0.00,Rainwise IP-100,2013-12-02 09:42:00,
2013-12-02 04:47:00,29.2,29.0,30.63,East,90,0.0,0.0,97,0.00,,,0.00,Rainwise IP-100,2013-12-02 09:47:00,
2013-12-02 04:52:00,28.6,29.0,30.63,East,90,0.0,0.0,97,0.00,,,0.00,Rainwise IP-100,2013-12-02 09:52:00,
2013-12-02 04:57:00,28.4,28.0,30.63,East,90,0.0,0.0,97,0.00,,,0.00,Rainwise IP-100,2013-12-02 09:57:00,
2013-12-02 05:02:00,28.3,28.0,30.63,East,90,0.0,0.0,97,0.00,,,0.00,Rainwise IP-100,2013-12-02 10:02:00,
2013-12-02 05:07:00,28.1,28.0,30.63,East,90,0.0,0.0,98,0.00,,,0.00,Rainwise IP-100,2013-12-02 10:07:00,
2013-12-02 05:12:00,28.1,28.0,30.63,East,90,0.0,0.0,98,0.00,,,0.00,Rainwise IP-100,2013-12-02 10:12:00,
2013-12-02 05:17:00,28.1,28.0,30.63,East,90,0.0,0.0,98,0.00,,,0.00,Rainwise IP-100,2013-12-02 10:17:00,
2013-12-02 05:22:00,28.0,28.0,30.63,East,90,0.0,0.0,98,0.00,,,0.00,Rainwise IP-100,2013-12-02 10:22:00,
2013-12-02 05:27:00,27.9,28.0,30.63,East,90,0.0,0.0,98,0.00,,,0.00,Rainwise IP-100,2013-12-02 10:27:00,
2013-12-02 05:32:00,28.1,28.0,30.63,East,90,0.0,0.0,98,0.00,,,0.00,Rainwise IP-100,2013-12-02 10:32:00,
2013-12-02 05:37:00,28.5,29.0,30.63,East,90,0.0,0.0,98,0.00,,,0.00,Rainwise IP-100,2013-12-02 10:37:00,
2013-12-02 05:42:00,28.8,29.0,30.63,NNW,337,1.4,3.0,98,0.00,,,0.00,Rainwise IP-100,2013-12-02 10:42:00,
2013-12-02 05:47:00,28.8,29.0,30.63,NNW,337,1.2,1.2,98,0.00,,,0.00,Rainwise IP-100,2013-12-02 10:47:00,
2013-12-02 05:52:00,28.7,29.0,30.63,NNW,337,1.4,1.4,98,0.00,,,0.00,Rainwise IP-100,2013-12-02 10:52:00,
2013-12-02 05:57:00,28.5,29.0,30.63,NNW,337,1.2,1.2,98,0.00,,,0.00,Rainwise IP-100,2013-12-02 10:57:00,
2013-12-02 06:02:00,28.3,28.0,30.63,NNW,337,1.2,3.0,98,0.00,,,0.00,Rainwise IP-100,2013-12-02 11:02:00,
2013-12-02 06:07:00,28.4,28.0,30.63,NW,315,2.8,2.8,98,0.00,,,0.00,Rainwise IP-100,2013-12-02 11:07:00,
2013-12-02 06:12:00,28.8,29.0,30.63,NW,315,1.9,2.0,98,0.00,,,0.00,Rainwise IP-100,2013-12-02 11:12:00,
2013-12-02 06:17:00,29.2,29.0,30.63,NW,315,2.3,2.3,98,0.00,,,0.00,Rainwise IP-100,2013-12-02 11:17:00,
2013-12-02 06:22:00,29.4,29.0,30.63,NW,315,1.4,2.0,97,0.00,,,0.00,Rainwise IP-100,2013-12-02 11:22:00,
2013-12-02 06:27:00,29.7,29.0,30.63,NW,315,0.0,1.0,97,0.00,,,0.00,Rainwise IP-100,2013-12-02 11:27:00,
2013-12-02 06:32:00,29.7,29.0,30.63,NW,315,0.0,1.0,97,0.00,,,0.00,Rainwise IP-100,2013-12-02 11:32:00,
2013-12-02 06:37:00,29.6,29.0,30.63,NW,315,0.0,0.0,97,0.00,,,0.00,Rainwise IP-100,2013-12-02 11:37:00,
2013-12-02 06:42:00,29.2,29.0,30.63,NW,315,0.0,0.0,97,0.00,,,0.00,Rainwise IP-100,2013-12-02 11:42:00,
2013-12-02 06:47:00,28.7,29.0,30.63,NW,315,0.0,0.0,97,0.00,,,0.00,Rainwise IP-100,2013-12-02 11:47:00,
2013-12-02 06:52:00,28.4,28.0,30.63,NW,315,0.0,0.0,97,0.00,,,0.00,Rainwise IP-100,2013-12-02 11:52:00,
2013-12-02 06:57:00,28.2,28.0,30.63,NW,315,0.0,0.0,97,0.00,,,0.00,Rainwise IP-100,2013-12-02 11:57:00,
2013-12-02 07:02:00,28.0,28.0,30.63,NW,315,0.0,1.0,97,0.00,,,0.00,Rainwise IP-100,2013-12-02 12:02:00,
2013-12-02 07:07:00,28.1,28.0,30.63,NW,315,0.0,1.0,98,0.00,,,0.00,Rainwise IP-100,2013-12-02 12:07:00,
2013-12-02 07:12:00,28.2,28.0,30.63,NW,315,0.0,0.0,98,0.00,,,0.00,Rainwise IP-100,2013-12-02 12:12:00,
2013-12-02 07:17:00,28.2,28.0,30.63,NW,315,0.0,0.0,98,0.00,,,0.00,Rainwise IP-100,2013-12-02 12:17:00,
2013-12-02 07:22:00,28.1,28.0,30.63,NW,315,0.0,1.0,98,0.00,,,0.00,Rainwise IP-100,2013-12-02 12:22:00,
2013-12-02 07:27:00,27.9,28.0,30.63,NW,315,0.0,0.0,98,0.00,,,0.00,Rainwise IP-100,2013-12-02 12:27:00,
2013-12-02 07:32:00,27.9,28.0,30.63,NW,315,0.0,0.0,98,0.00,,,0.00,Rainwise IP-100,2013-12-02 12:32:00,
2013-12-02 07:37:00,28.0,28.0,30.63,NW,315,1.4,1.4,98,0.00,,,0.00,Rainwise IP-100,2013-12-02 12:37:00,
2013-12-02 07:42:00,28.1,28.0,30.63,NW,315,1.4,2.0,98,0.00,,,0.00,Rainwise IP-100,2013-12-02 12:42:00,
2013-12-02 07:47:00,28.1,28.0,30.63,NW,315,2.8,3.0,98,0.00,,,0.00,Rainwise IP-100,2013-12-02 12:47:00,
2013-12-02 07:52:00,28.1,28.0,30.63,NW,315,0.0,2.0,98,0.00,,,0.00,Rainwise IP-100,2013-12-02 12:52:00,
2013-12-02 07:57:00,28.1,28.0,30.63,NW,315,1.6,1.6,98,0.00,,,0.00,Rainwise IP-100,2013-12-02 12:57:00,
2013-12-02 08:02:00,28.3,28.0,30.63,NW,315,2.3,4.0,98,0.00,,,0.00,Rainwise IP-100,2013-12-02 13:02:00,
2013-12-02 08:07:00,28.9,29.0,30.63,NW,315,3.0,3.0,98,0.00,,,0.00,Rainwise IP-100,2013-12-02 13:07:00,
2013-12-02 08:12:00,29.7,29.0,30.63,NW,315,3.3,3.3,97,0.00,,,0.00,Rainwise IP-100,2013-12-02 13:12:00,
2013-12-02 08:17:00,30.4,29.0,30.63,NNW,337,3.5,4.0,96,0.00,,,0.00,Rainwise IP-100,2013-12-02 13:17:00,
2013-12-02 08:22:00,31.1,29.0,30.63,NNW,337,3.3,4.0,96,0.00,,,0.00,Rainwise IP-100,2013-12-02 13:22:00,
2013-12-02 08:27:00,31.7,31.0,30.63,NNW,337,0.0,3.0,95,0.00,,,0.00,Rainwise IP-100,2013-12-02 13:27:00,
2013-12-02 08:32:00,31.9,31.0,30.63,NNW,337,0.0,1.0,94,0.00,,,0.00,Rainwise IP-100,2013-12-02 13:32:00,
2013-12-02 08:37:00,32.0,31.0,30.63,NNW,337,0.0,0.0,94,0.00,,,0.00,Rainwise IP-100,2013-12-02 13:37:00,
2013-12-02 08:42:00,32.7,32.0,30.63,NNW,337,0.0,1.0,93,0.00,,,0.00,Rainwise IP-100,2013-12-02 13:42:00,
2013-12-02 08:47:00,33.9,32.0,30.63,ENE,67,0.0,3.0,92,0.00,,,0.00,Rainwise IP-100,2013-12-02 13:47:00,
2013-12-02 08:52:00,35.0,32.0,30.63,NNE,22,1.2,2.0,90,0.00,,,0.00,Rainwise IP-100,2013-12-02 13:52:00,
2013-12-02 08:57:00,36.0,32.0,30.63,East,90,0.0,3.0,88,0.00,,,0.00,Rainwise IP-100,2013-12-02 13:57:00,
2013-12-02 09:02:00,37.0,33.0,30.63,NNE,22,1.9,3.0,87,0.00,,,0.00,Rainwise IP-100,2013-12-02 14:02:00,
2013-12-02 09:07:00,38.0,35.0,30.63,NNE,22,1.9,2.0,85,0.00,,,0.00,Rainwise IP-100,2013-12-02 14:07:00,
2013-12-02 09:12:00,39.0,35.0,30.63,NNW,337,1.9,3.0,83,0.00,,,0.00,Rainwise IP-100,2013-12-02 14:12:00,
2013-12-02 09:17:00,39.8,35.0,30.63,NNW,337,0.0,3.0,81,0.00,,,0.00,Rainwise IP-100,2013-12-02 14:17:00,
2013-12-02 09:22:00,40.3,35.0,30.63,WNW,292,2.1,3.0,78,0.00,,,0.00,Rainwise IP-100,2013-12-02 14:22:00,
2013-12-02 09:27:00,40.5,35.0,30.63,NNW,337,2.1,4.0,77,0.00,,,0.00,Rainwise IP-100,2013-12-02 14:27:00,
2013-12-02 09:32:00,41.0,35.0,30.63,NNW,337,3.7,4.0,77,0.00,,,0.00,Rainwise IP-100,2013-12-02 14:32:00,
2013-12-02 09:37:00,41.9,35.0,30.63,NNW,337,2.8,4.0,75,0.00,,,0.00,Rainwise IP-100,2013-12-02 14:37:00,
2013-12-02 09:42:00,42.6,35.0,30.63,WNW,292,0.0,3.0,72,0.00,,,0.00,Rainwise IP-100,2013-12-02 14:42:00,
2013-12-02 09:47:00,43.4,35.0,30.63,NE,45,0.0,2.0,71,0.00,,,0.00,Rainwise IP-100,2013-12-02 14:47:00,
2013-12-02 09:52:00,44.4,35.0,30.63,ESE,112,1.6,3.0,70,0.00,,,0.00,Rainwise IP-100,2013-12-02 14:52:00,
2013-12-02 09:57:00,45.4,35.0,30.63,ESE,112,2.3,3.0,68,0.00,,,0.00,Rainwise IP-100,2013-12-02 14:57:00,
2013-12-02 10:02:00,46.4,35.0,30.63,NNW,337,2.6,3.0,66,0.00,,,0.00,Rainwise IP-100,2013-12-02 15:02:00,
2013-12-02 10:07:00,47.4,36.0,30.63,NE,45,0.0,4.0,63,0.00,,,0.00,Rainwise IP-100,2013-12-02 15:07:00,
2013-12-02 10:12:00,48.0,36.0,30.63,NNE,22,1.9,4.0,61,0.00,,,0.00,Rainwise IP-100,2013-12-02 15:12:00,
2013-12-02 10:17:00,48.4,35.0,30.63,NNW,337,2.1,3.0,60,0.00,,,0.00,Rainwise IP-100,2013-12-02 15:17:00,
2013-12-02 10:22:00,48.0,35.0,30.63,WNW,292,4.4,6.0,60,0.00,,,0.00,Rainwise IP-100,2013-12-02 15:22:00,
2013-12-02 10:27:00,47.2,33.0,30.63,WNW,292,7.0,7.0,60,0.00,,,0.00,Rainwise IP-100,2013-12-02 15:27:00,
2013-12-02 10:32:00,46.4,33.0,30.63,WNW,292,2.8,7.0,62,0.00,,,0.00,Rainwise IP-100,2013-12-02 15:32:00,
2013-12-02 10:37:00,45.9,35.0,30.63,WNW,292,3.7,7.0,63,0.00,,,0.00,Rainwise IP-100,2013-12-02 15:37:00,
2013-12-02 10:42:00,45.6,35.0,30.63,West,270,2.8,5.0,64,0.00,,,0.00,Rainwise IP-100,2013-12-02 15:42:00,
2013-12-02 10:47:00,45.8,35.0,30.63,NW,315,4.7,5.0,64,0.00,,,0.00,Rainwise IP-100,2013-12-02 15:47:00,
2013-12-02 10:52:00,46.6,35.0,30.63,NNW,337,1.6,5.0,64,0.00,,,0.00,Rainwise IP-100,2013-12-02 15:52:00,
2013-12-02 10:57:00,47.3,35.0,30.63,NNW,337,3.0,6.0,63,0.00,,,0.00,Rainwise IP-100,2013-12-02 15:57:00,
2013-12-02 11:02:00,47.9,36.0,30.63,WNW,292,4.9,6.0,62,0.00,,,0.00,Rainwise IP-100,2013-12-02 16:02:00,
2013-12-02 11:07:00,48.2,36.0,30.63,NNW,337,2.8,5.0,61,0.00,,,0.00,Rainwise IP-100,2013-12-02 16:07:00,
2013-12-02 11:12:00,48.3,35.0,30.63,WNW,292,1.6,5.0,60,0.00,,,0.00,Rainwise IP-100,2013-12-02 16:12:00,
2013-12-02 11:17:00,48.5,36.0,30.63,WSW,247,1.4,4.0,60,0.00,,,0.00,Rainwise IP-100,2013-12-02 16:17:00,
2013-12-02 11:22:00,49.3,36.0,30.63,WNW,292,1.6,4.0,59,0.00,,,0.00,Rainwise IP-100,2013-12-02 16:22:00,
2013-12-02 11:27:00,50.1,36.0,30.63,SSW,202,0.0,4.0,58,0.00,,,0.00,Rainwise IP-100,2013-12-02 16:27:00,
2013-12-02 11:32:00,50.4,36.0,30.63,WSW,247,3.0,4.0,56,0.00,,,0.00,Rainwise IP-100,2013-12-02 16:32:00,
2013-12-02 11:37:00,50.8,35.0,30.63,WSW,247,0.0,3.0,55,0.00,,,0.00,Rainwise IP-100,2013-12-02 16:37:00,
2013-12-02 11:42:00,51.7,36.0,30.63,North,360,2.8,4.0,54,0.00,,,0.00,Rainwise IP-100,2013-12-02 16:42:00,
2013-12-02 11:47:00,52.6,36.0,30.63,North,360,3.7,4.0,52,0.00,,,0.00,Rainwise IP-100,2013-12-02 16:47:00,
2013-12-02 11:52:00,53.0,35.0,30.63,NNW,337,4.9,8.0,51,0.00,,,0.00,Rainwise IP-100,2013-12-02 16:52:00,
2013-12-02 11:57:00,52.9,35.0,30.63,SW,225,4.2,7.0,50,0.00,,,0.00,Rainwise IP-100,2013-12-02 16:57:00,
2013-12-02 12:02:00,53.1,35.0,30.63,SW,225,0.0,4.0,50,0.00,,,0.00,Rainwise IP-100,2013-12-02 17:02:00,
2013-12-02 12:07:00,53.6,36.0,30.63,SE,135,0.0,4.0,50,0.00,,,0.00,Rainwise IP-100,2013-12-02 17:07:00,
2013-12-02 12:12:00,54.0,36.0,30.63,SSW,202,5.6,7.0,50,0.00,,,0.00,Rainwise IP-100,2013-12-02 17:12:00,
2013-12-02 12:17:00,54.5,36.0,30.63,NW,315,3.7,8.0,49,0.00,,,0.00,Rainwise IP-100,2013-12-02 17:17:00,
2013-12-02 12:22:00,54.5,36.0,30.63,WNW,292,2.3,7.0,49,0.00,,,0.00,Rainwise IP-100,2013-12-02 17:22:00,
2013-12-02 12:27:00,54.5,36.0,30.63,WNW,292,2.1,8.0,49,0.00,,,0.00,Rainwise IP-100,2013-12-02 17:27:00,
2013-12-02 12:32:00,54.4,36.0,30.63,WNW,292,3.0,5.0,49,0.00,,,0.00,Rainwise IP-100,2013-12-02 17:32:00,
2013-12-02 12:37:00,54.3,36.0,30.63,NNW,337,4.2,5.0,50,0.00,,,0.00,Rainwise IP-100,2013-12-02 17:37:00,
2013-12-02 12:42:00,54.6,37.0,30.63,West,270,1.4,4.0,50,0.00,,,0.00,Rainwise IP-100,2013-12-02 17:42:00,
2013-12-02 12:47:00,54.6,36.0,30.63,WNW,292,3.3,4.0,49,0.00,,,0.00,Rainwise IP-100,2013-12-02 17:47:00,
2013-12-02 12:52:00,54.6,37.0,30.63,NNW,337,0.0,4.0,50,0.00,,,0.00,Rainwise IP-100,2013-12-02 17:52:00,
2013-12-02 12:57:00,55.0,37.0,30.63,ESE,112,2.1,2.1,49,0.00,,,0.00,Rainwise IP-100,2013-12-02 17:57:00,
2013-12-02 13:02:00,55.5,37.0,30.63,SSE,157,0.0,4.0,49,0.00,,,0.00,Rainwise IP-100,2013-12-02 18:02:00,
2013-12-02 13:07:00,55.7,37.0,30.63,SSE,157,1.2,5.0,49,0.00,,,0.00,Rainwise IP-100,2013-12-02 18:07:00,
2013-12-02 13:12:00,55.6,37.0,30.63,WNW,292,4.9,5.0,49,0.00,,,0.00,Rainwise IP-100,2013-12-02 18:12:00,
2013-12-02 13:17:00,55.2,37.0,30.63,WNW,292,1.4,5.0,49,0.00,,,0.00,Rainwise IP-100,2013-12-02 18:17:00,
2013-12-02 13:22:00,54.8,36.0,30.63,West,270,0.0,3.0,48,0.00,,,0.00,Rainwise IP-100,2013-12-02 18:22:00,
2013-12-02 13:27:00,55.0,36.0,30.63,WNW,292,3.0,3.0,48,0.00,,,0.00,Rainwise IP-100,2013-12-02 18:27:00,
2013-12-02 13:32:00,54.9,36.0,30.63,WNW,292,2.3,3.0,48,0.00,,,0.00,Rainwise IP-100,2013-12-02 18:32:00,
2013-12-02 13:37:00,54.6,36.0,30.63,WNW,292,0.0,2.0,48,0.00,,,0.00,Rainwise IP-100,2013-12-02 18:37:00,
2013-12-02 13:42:00,55.0,36.0,30.63,NW,315,1.4,4.0,48,0.00,,,0.00,Rainwise IP-100,2013-12-02 18:42:00,
2013-12-02 13:47:00,55.3,36.0,30.63,West,270,3.3,3.3,48,0.00,,,0.00,Rainwise IP-100,2013-12-02 18:47:00,
2013-12-02 13:52:00,55.1,36.0,30.63,East,90,2.8,5.0,48,0.00,,,0.00,Rainwise IP-100,2013-12-02 18:52:00,
2013-12-02 13:57:00,55.2,36.0,30.63,West,270,1.4,4.0,48,0.00,,,0.00,Rainwise IP-100,2013-12-02 18:57:00,
2013-12-02 14:02:00,55.4,36.0,30.63,WNW,292,2.1,4.0,47,0.00,,,0.00,Rainwise IP-100,2013-12-02 19:02:00,
2013-12-02 14:07:00,55.6,36.0,30.63,WSW,247,0.0,3.0,47,0.00,,,0.00,Rainwise IP-100,2013-12-02 19:07:00,
2013-12-02 14:12:00,55.9,36.0,30.63,NNW,337,2.8,4.0,47,0.00,,,0.00,Rainwise IP-100,2013-12-02 19:12:00,
2013-12-02 14:17:00,55.8,36.0,30.63,West,270,1.4,3.0,46,0.00,,,0.00,Rainwise IP-100,2013-12-02 19:17:00,
2013-12-02 14:22:00,55.5,36.0,30.63,WNW,292,3.0,4.0,46,0.00,,,0.00,Rainwise IP-100,2013-12-02 19:22:00,
2013-12-02 14:27:00,55.9,36.0,30.63,NNW,337,1.9,4.0,46,0.00,,,0.00,Rainwise IP-100,2013-12-02 19:27:00,
2013-12-02 14:32:00,56.4,36.0,30.63,NNW,337,0.0,3.0,45,0.00,,,0.00,Rainwise IP-100,2013-12-02 19:32:00,
2013-12-02 14:37:00,56.8,35.0,30.63,SSW,202,0.0,2.0,44,0.00,,,0.00,Rainwise IP-100,2013-12-02 19:37:00,
2013-12-02 14:42:00,57.3,36.0,30.63,SSW,202,1.9,3.0,44,0.00,,,0.00,Rainwise IP-100,2013-12-02 19:42:00,
2013-12-02 14:47:00,57.4,36.0,30.63,SSW,202,1.6,2.0,44,0.00,,,0.00,Rainwise IP-100,2013-12-02 19:47:00,
2013-12-02 14:52:00,57.9,36.0,30.63,SSW,202,2.8,4.0,43,0.00,,,0.00,Rainwise IP-100,2013-12-02 19:52:00,
2013-12-02 14:57:00,58.0,36.0,30.63,WSW,247,0.0,4.0,42,0.00,,,0.00,Rainwise IP-100,2013-12-02 19:57:00,
2013-12-02 15:02:00,57.6,36.0,30.63,ENE,67,0.0,3.0,43,0.00,,,0.00,Rainwise IP-100,2013-12-02 20:02:00,
2013-12-02 15:07:00,57.9,36.0,30.63,NNE,22,1.4,4.0,43,0.00,,,0.00,Rainwise IP-100,2013-12-02 20:07:00,
2013-12-02 15:12:00,58.4,36.0,30.63,NNW,337,2.1,3.0,43,0.00,,,0.00,Rainwise IP-100,2013-12-02 20:12:00,
2013-12-02 15:17:00,58.8,36.0,30.63,NNW,337,0.0,2.0,42,0.00,,,0.00,Rainwise IP-100,2013-12-02 20:17:00,
2013-12-02 15:22:00,59.1,36.0,30.63,NNW,337,3.0,3.0,42,0.00,,,0.00,Rainwise IP-100,2013-12-02 20:22:00,
2013-12-02 15:27:00,58.5,36.0,30.63,WNW,292,1.9,4.0,42,0.00,,,0.00,Rainwise IP-100,2013-12-02 20:27:00,
2013-12-02 15:32:00,58.3,36.0,30.63,SSW,202,3.0,4.0,42,0.00,,,0.00,Rainwise IP-100,2013-12-02 20:32:00,
2013-12-02 15:37:00,58.3,36.0,30.63,WSW,247,1.2,4.0,42,0.00,,,0.00,Rainwise IP-100,2013-12-02 20:37:00,
2013-12-02 15:42:00,58.2,36.0,30.63,SSW,202,2.6,3.0,43,0.00,,,0.00,Rainwise IP-100,2013-12-02 20:42:00,
2013-12-02 15:47:00,58.1,36.0,30.63,WSW,247,1.4,3.0,43,0.00,,,0.00,Rainwise IP-100,2013-12-02 20:47:00,
2013-12-02 15:52:00,58.2,36.0,30.63,WSW,247,0.0,1.0,42,0.00,,,0.00,Rainwise IP-100,2013-12-02 20:52:00,
2013-12-02 15:57:00,58.5,37.0,30.63,SE,135,0.0,3.0,43,0.00,,,0.00,Rainwise IP-100,2013-12-02 20:57:00,
2013-12-02 16:02:00,58.1,36.0,30.63,SSE,157,1.2,3.0,43,0.00,,,0.00,Rainwise IP-100,2013-12-02 21:02:00,
2013-12-02 16:07:00,58.3,36.0,30.63,SSW,202,0.0,2.0,43,0.00,,,0.00,Rainwise IP-100,2013-12-02 21:07:00,
2013-12-02 16:12:00,58.5,37.0,30.63,SSW,202,0.0,1.0,43,0.00,,,0.00,Rainwise IP-100,2013-12-02 21:12:00,
2013-12-02 16:17:00,58.4,36.0,30.63,SSW,202,1.2,1.2,43,0.00,,,0.00,Rainwise IP-100,2013-12-02 21:17:00,
2013-12-02 16:22:00,58.6,37.0,30.63,SSW,202,1.2,2.0,43,0.00,,,0.00,Rainwise IP-100,2013-12-02 21:22:00,
2013-12-02 16:27:00,58.7,37.0,30.63,SSW,202,0.0,1.0,43,0.00,,,0.00,Rainwise IP-100,2013-12-02 21:27:00,
2013-12-02 16:32:00,57.5,36.0,30.63,SSW,202,0.0,1.0,44,0.00,,,0.00,Rainwise IP-100,2013-12-02 21:32:00,
2013-12-02 16:37:00,56.1,35.0,30.63,SSW,202,0.0,0.0,45,0.00,,,0.00,Rainwise IP-100,2013-12-02 21:37:00,
2013-12-02 16:42:00,55.7,36.0,30.63,SSW,202,0.0,1.0,47,0.00,,,0.00,Rainwise IP-100,2013-12-02 21:42:00,
2013-12-02 16:47:00,54.9,37.0,30.63,SSW,202,0.0,0.0,49,0.00,,,0.00,Rainwise IP-100,2013-12-02 21:47:00,
2013-12-02 16:52:00,53.9,36.0,30.63,SSW,202,0.0,0.0,51,0.00,,,0.00,Rainwise IP-100,2013-12-02 21:52:00,
2013-12-02 16:57:00,53.2,36.0,30.63,SSW,202,0.0,0.0,53,0.00,,,0.00,Rainwise IP-100,2013-12-02 21:57:00,
2013-12-02 17:02:00,52.4,36.0,30.63,SSW,202,0.0,0.0,54,0.00,,,0.00,Rainwise IP-100,2013-12-02 22:02:00,
2013-12-02 17:07:00,51.7,36.0,30.63,SSW,202,0.0,0.0,55,0.00,,,0.00,Rainwise IP-100,2013-12-02 22:07:00,
2013-12-02 17:12:00,51.3,36.0,30.63,SSW,202,0.0,0.0,55,0.00,,,0.00,Rainwise IP-100,2013-12-02 22:12:00,
2013-12-02 17:17:00,50.7,36.0,30.63,South,180,0.0,0.0,56,0.00,,,0.00,Rainwise IP-100,2013-12-02 22:17:00,
2013-12-02 17:22:00,50.5,36.0,30.63,East,90,0.0,2.0,56,0.00,,,0.00,Rainwise IP-100,2013-12-02 22:22:00,
2013-12-02 17:27:00,50.5,36.0,30.63,East,90,0.0,0.0,57,0.00,,,0.00,Rainwise IP-100,2013-12-02 22:27:00,
2013-12-02 17:32:00,50.2,36.0,30.63,East,90,0.0,0.0,58,0.00,,,0.00,Rainwise IP-100,2013-12-02 22:32:00,
2013-12-02 17:37:00,49.8,36.0,30.63,East,90,0.0,0.0,59,0.00,,,0.00,Rainwise IP-100,2013-12-02 22:37:00,
2013-12-02 17:42:00,49.5,36.0,30.63,East,90,0.0,0.0,59,0.00,,,0.00,Rainwise IP-100,2013-12-02 22:42:00,
2013-12-02 17:47:00,49.3,36.0,30.63,East,90,1.2,1.2,61,0.00,,,0.00,Rainwise IP-100,2013-12-02 22:47:00,
2013-12-02 17:52:00,49.3,36.0,30.63,East,90,1.2,1.2,61,0.00,,,0.00,Rainwise IP-100,2013-12-02 22:52:00,
2013-12-02 17:57:00,49.6,37.0,30.63,East,90,0.0,1.0,60,0.00,,,0.00,Rainwise IP-100,2013-12-02 22:57:00,
2013-12-02 18:02:00,49.9,37.0,30.63,East,90,1.2,1.2,60,0.00,,,0.00,Rainwise IP-100,2013-12-02 23:02:00,
2013-12-02 18:07:00,49.9,36.0,30.63,East,90,1.4,2.0,59,0.00,,,0.00,Rainwise IP-100,2013-12-02 23:07:00,
2013-12-02 18:12:00,50.1,36.0,30.63,East,90,1.4,1.4,59,0.00,,,0.00,Rainwise IP-100,2013-12-02 23:12:00,
2013-12-02 18:17:00,50.2,36.0,30.63,East,90,1.6,2.0,59,0.00,,,0.00,Rainwise IP-100,2013-12-02 23:17:00,
2013-12-02 18:22:00,50.2,36.0,30.63,East,90,0.0,1.0,59,0.00,,,0.00,Rainwise IP-100,2013-12-02 23:22:00,
2013-12-02 18:27:00,50.1,37.0,30.63,East,90,0.0,0.0,60,0.00,,,0.00,Rainwise IP-100,2013-12-02 23:27:00,
2013-12-02 18:32:00,49.5,38.0,30.63,East,90,0.0,0.0,63,0.00,,,0.00,Rainwise IP-100,2013-12-02 23:32:00,
2013-12-02 18:37:00,48.8,37.0,30.63,East,90,0.0,0.0,64,0.00,,,0.00,Rainwise IP-100,2013-12-02 23:37:00,
2013-12-02 18:42:00,48.5,38.0,30.63,East,90,0.0,0.0,65,0.00,,,0.00,Rainwise IP-100,2013-12-02 23:42:00,
2013-12-02 18:47:00,48.5,37.0,30.63,East,90,0.0,0.0,64,0.00,,,0.00,Rainwise IP-100,2013-12-02 23:47:00,
2013-12-02 18:52:00,48.6,37.0,30.63,East,90,0.0,0.0,64,0.00,,,0.00,Rainwise IP-100,2013-12-02 23:52:00,
2013-12-02 18:57:00,49.1,37.0,30.63,NW,315,2.1,3.0,63,0.00,,,0.00,Rainwise IP-100,2013-12-02 23:57:00,
2013-12-02 19:02:00,49.3,37.0,30.63,NW,315,0.0,2.0,63,0.00,,,0.00,Rainwise IP-100,2013-12-03 00:02:00,
2013-12-02 19:07:00,49.0,37.0,30.63,NW,315,0.0,2.0,64,0.00,,,0.00,Rainwise IP-100,2013-12-03 00:07:00,
2013-12-02 19:12:00,48.9,37.0,30.63,NW,315,0.0,0.0,64,0.00,,,0.00,Rainwise IP-100,2013-12-03 00:12:00,
2013-12-02 19:17:00,49.1,37.0,30.63,NW,315,0.0,0.0,63,0.00,,,0.00,Rainwise IP-100,2013-12-03 00:17:00,
2013-12-02 19:22:00,49.2,37.0,30.63,NW,315,0.0,0.0,62,0.00,,,0.00,Rainwise IP-100,2013-12-03 00:22:00,
2013-12-02 19:27:00,49.3,37.0,30.63,NW,315,0.0,0.0,62,0.00,,,0.00,Rainwise IP-100,2013-12-03 00:27:00,
2013-12-02 19:32:00,49.4,37.0,30.63,NW,315,0.0,0.0,62,0.00,,,0.00,Rainwise IP-100,2013-12-03 00:32:00,
2013-12-02 19:37:00,49.2,37.0,30.63,NW,315,0.0,0.0,62,0.00,,,0.00,Rainwise IP-100,2013-12-03 00:37:00,
2013-12-02 19:42:00,49.0,37.0,30.63,NW,315,0.0,0.0,63,0.00,,,0.00,Rainwise IP-100,2013-12-03 00:42:00,
2013-12-02 19:47:00,48.6,37.0,30.63,NW,315,0.0,0.0,63,0.00,,,0.00,Rainwise IP-100,2013-12-03 00:47:00,
2013-12-02 19:52:00,48.3,37.0,30.63,NW,315,0.0,0.0,64,0.00,,,0.00,Rainwise IP-100,2013-12-03 00:52:00,
2013-12-02 19:57:00,48.2,37.0,30.63,NW,315,0.0,0.0,65,0.00,,,0.00,Rainwise IP-100,2013-12-03 00:57:00,
2013-12-02 20:02:00,48.1,37.0,30.63,NW,315,0.0,0.0,65,0.00,,,0.00,Rainwise IP-100,2013-12-03 01:02:00,
2013-12-02 20:07:00,48.1,37.0,30.63,NW,315,0.0,0.0,65,0.00,,,0.00,Rainwise IP-100,2013-12-03 01:07:00,
2013-12-02 20:12:00,48.2,37.0,30.63,NW,315,0.0,0.0,65,0.00,,,0.00,Rainwise IP-100,2013-12-03 01:12:00,
2013-12-02 20:17:00,48.3,37.0,30.63,NW,315,0.0,0.0,65,0.00,,,0.00,Rainwise IP-100,2013-12-03 01:17:00,
2013-12-02 20:22:00,48.2,37.0,30.63,NW,315,0.0,0.0,65,0.00,,,0.00,Rainwise IP-100,2013-12-03 01:22:00,
2013-12-02 20:27:00,48.0,37.0,30.63,NW,315,0.0,0.0,66,0.00,,,0.00,Rainwise IP-100,2013-12-03 01:27:00,
2013-12-02 20:32:00,47.8,37.0,30.63,NW,315,0.0,0.0,67,0.00,,,0.00,Rainwise IP-100,2013-12-03 01:32:00,
2013-12-02 20:37:00,47.5,37.0,30.63,NW,315,0.0,1.0,68,0.00,,,0.00,Rainwise IP-100,2013-12-03 01:37:00,
2013-12-02 20:42:00,47.3,37.0,30.63,NW,315,0.0,0.0,69,0.00,,,0.00,Rainwise IP-100,2013-12-03 01:42:00,
2013-12-02 20:47:00,47.1,37.0,30.63,NW,315,0.0,0.0,70,0.00,,,0.00,Rainwise IP-100,2013-12-03 01:47:00,
2013-12-02 20:52:00,46.9,38.0,30.63,NW,315,0.0,0.0,71,0.00,,,0.00,Rainwise IP-100,2013-12-03 01:52:00,
2013-12-02 20:57:00,46.8,38.0,30.63,NW,315,0.0,0.0,71,0.00,,,0.00,Rainwise IP-100,2013-12-03 01:57:00,
2013-12-02 21:02:00,46.6,38.0,30.63,NW,315,0.0,0.0,71,0.00,,,0.00,Rainwise IP-100,2013-12-03 02:02:00,
2013-12-02 21:07:00,46.4,37.0,30.63,NW,315,0.0,0.0,72,0.00,,,0.00,Rainwise IP-100,2013-12-03 02:07:00,
2013-12-02 21:12:00,46.4,37.0,30.63,NW,315,0.0,0.0,71,0.00,,,0.00,Rainwise IP-100,2013-12-03 02:12:00,
2013-12-02 21:17:00,46.4,37.0,30.63,NW,315,0.0,0.0,71,0.00,,,0.00,Rainwise IP-100,2013-12-03 02:17:00,
2013-12-02 21:22:00,46.4,37.0,30.63,NW,315,0.0,0.0,71,0.00,,,0.00,Rainwise IP-100,2013-12-03 02:22:00,
2013-12-02 21:27:00,46.5,38.0,30.63,NW,315,0.0,0.0,71,0.00,,,0.00,Rainwise IP-100,2013-12-03 02:27:00,
2013-12-02 21:32:00,46.5,37.0,30.63,NW,315,0.0,0.0,70,0.00,,,0.00,Rainwise IP-100,2013-12-03 02:32:00,
2013-12-02 21:37:00,46.6,37.0,30.63,NW,315,0.0,0.0,70,0.00,,,0.00,Rainwise IP-100,2013-12-03 02:37:00,
2013-12-02 21:42:00,46.8,37.0,30.63,NW,315,0.0,0.0,69,0.00,,,0.00,Rainwise IP-100,2013-12-03 02:42:00,
2013-12-02 21:47:00,46.9,37.0,30.63,NW,315,0.0,0.0,69,0.00,,,0.00,Rainwise IP-100,2013-12-03 02:47:00,
2013-12-02 21:52:00,46.7,37.0,30.63,NW,315,0.0,0.0,70,0.00,,,0.00,Rainwise IP-100,2013-12-03 02:52:00,
2013-12-02 21:57:00,46.5,37.0,30.63,NW,315,0.0,0.0,70,0.00,,,0.00,Rainwise IP-100,2013-12-03 02:57:00,
2013-12-02 22:02:00,46.4,37.0,30.63,NW,315,0.0,0.0,70,0.00,,,0.00,Rainwise IP-100,2013-12-03 03:02:00,
2013-12-02 22:07:00,46.4,37.0,30.63,NW,315,0.0,0.0,70,0.00,,,0.00,Rainwise IP-100,2013-12-03 03:07:00,
2013-12-02 22:12:00,46.3,37.0,30.63,NW,315,0.0,0.0,70,0.00,,,0.00,Rainwise IP-100,2013-12-03 03:12:00,
2013-12-02 22:17:00,46.0,37.0,30.63,NW,315,0.0,0.0,71,0.00,,,0.00,Rainwise IP-100,2013-12-03 03:17:00,
2013-12-02 22:22:00,45.7,37.0,30.63,NW,315,0.0,0.0,72,0.00,,,0.00,Rainwise IP-100,2013-12-03 03:22:00,
2013-12-02 22:27:00,45.5,38.0,30.63,NW,315,0.0,0.0,73,0.00,,,0.00,Rainwise IP-100,2013-12-03 03:27:00,
2013-12-02 22:32:00,45.3,37.0,30.63,NW,315,0.0,0.0,73,0.00,,,0.00,Rainwise IP-100,2013-12-03 03:32:00,
2013-12-02 22:37:00,45.0,37.0,30.63,NW,315,0.0,0.0,73,0.00,,,0.00,Rainwise IP-100,2013-12-03 03:37:00,
2013-12-02 22:42:00,45.0,37.0,30.63,NW,315,0.0,0.0,73,0.00,,,0.00,Rainwise IP-100,2013-12-03 03:42:00,
2013-12-02 22:47:00,45.1,37.0,30.63,NW,315,0.0,0.0,73,0.00,,,0.00,Rainwise IP-100,2013-12-03 03:47:00,
2013-12-02 22:52:00,45.1,37.0,30.63,NW,315,0.0,0.0,73,0.00,,,0.00,Rainwise IP-100,2013-12-03 03:52:00,
2013-12-02 22:57:00,45.1,37.0,30.63,NW,315,0.0,0.0,74,0.00,,,0.00,Rainwise IP-100,2013-12-03 03:57:00,
2013-12-02 23:02:00,44.8,38.0,30.63,NW,315,0.0,0.0,75,0.00,,,0.00,Rainwise IP-100,2013-12-03 04:02:00,
2013-12-02 23:07:00,44.4,37.0,30.63,NW,315,0.0,0.0,75,0.00,,,0.00,Rainwise IP-100,2013-12-03 04:07:00,
2013-12-02 23:12:00,44.1,37.0,30.63,NW,315,0.0,0.0,76,0.00,,,0.00,Rainwise IP-100,2013-12-03 04:12:00,
2013-12-02 23:17:00,44.0,37.0,30.63,NW,315,0.0,0.0,76,0.00,,,0.00,Rainwise IP-100,2013-12-03 04:17:00,
2013-12-02 23:22:00,44.1,37.0,30.63,NW,315,0.0,0.0,76,0.00,,,0.00,Rainwise IP-100,2013-12-03 04:22:00,
2013-12-02 23:27:00,44.0,37.0,30.63,NW,315,0.0,0.0,76,0.00,,,0.00,Rainwise IP-100,2013-12-03 04:27:00,
2013-12-02 23:32:00,43.9,37.0,30.63,NW,315,0.0,0.0,77,0.00,,,0.00,Rainwise IP-100,2013-12-03 04:32:00,
2013-12-02 23:37:00,43.7,38.0,30.63,NW,315,0.0,0.0,78,0.00,,,0.00,Rainwise IP-100,2013-12-03 04:37:00,
2013-12-02 23:42:00,43.4,37.0,30.63,NW,315,0.0,0.0,79,0.00,,,0.00,Rainwise IP-100,2013-12-03 04:42:00,
2013-12-02 23:47:00,43.1,37.0,30.63,NW,315,0.0,0.0,79,0.00,,,0.00,Rainwise IP-100,2013-12-03 04:47:00,
2013-12-02 23:52:00,42.8,37.0,30.63,NW,315,0.0,0.0,79,0.00,,,0.00,Rainwise IP-100,2013-12-03 04:52:00,
2013-12-02 23:57:00,42.4,36.0,30.63,NW,315,0.0,0.0,79,0.00,,,0.00,Rainwise IP-100,2013-12-03 04:57:00,